Location: Ahausen
(50.4985°N, 8.2722°E)
Time: 15:43:29
(UTC+00:00)

Cosmos 2082 Rocket - Pass Details

Date: 18 September 2020
Orbit: 834 x 852 km, 71.0° (Epoch: 21 October)

Event Time Altitude Azimuth Distance (km) Brightness Sun altitude
Rises 18:54:21 0° 331° (NNW) 3,394 6.1 -13.5°
Reaches altitude 10° 18:57:50 10° 353° (N) 2,457 5.0 -14.0°
Maximum altitude 19:01:14 16° 30° (NNE) 2,060 4.1 -14.5°
Enters shadow 19:04:23 11° 66° (ENE) 2,405 4.2 -15.0°
